[[{"header":{"parameterUnit":"m.s-1","parameterCategory":1,"la1":30.2991,"la2":30.254,"lo1":-89.0895,"lo2":-89.0444,"dy":0.0017,"dx":0.0017,"nx":28,"ny":28,"refTime":"2025-05-28T09:00:00:Z","depth":0,"parameterNumber":2,"parameterNumberName":"U-component_of_WINDS"},"data":[0,0,0,0,0,0,0,0,0,0,0,0,0,0,0,0,0,0,0,0,0,0,0,0,0,0,0,0,0,0,0,0,0,0,0,0,0,0,0,0,0,0,0,0,0,0,0,0,0,0,0,0,0,0,0,0,0,0,2.5765,2.5766,0,2.5806,2.5806,2.5806,2.5793,2.5792,2.5791,2.579,2.5829,2.5831,2.5833,0,0,0,0,0,0,0,0,0,0,0,0,0,2.5673,2.5675,2.5765,2.5766,2.5766,2.5805,2.5806,2.5807,2.5793,2.5792,2.5791,2.579,2.5829,2.5831,2.5833,0,0,0,0,0,0,0,0,0,0,0,0,0,2.5713,2.5676,2.5765,2.5764,2.5765,2.5805,2.5806,2.5807,2.5793,2.5792,2.579,2.5789,2.5828,2.5831,2.5833,2.5877,0,0,2.5842,2.5843,0,0,0,0,0,0,0,0,2.5711,2.5717,2.5764,2.5764,2.5765,2.5793,2.5788,2.583,2.5793,2.5782,2.579,2.5789,2.5818,2.5822,2.5832,2.5879,2.5881,2.5842,2.5844,2.5845,2.5846,0,0,0,0,0,0,0,2.5708,2.5715,2.5781,2.5765,2.5765,2.5761,2.5765,2.5796,2.5807,2.5783,2.5782,2.5787,2.5818,2.5829,2.5833,2.5881,2.5842,2.5845,2.5846,2.5847,2.5962,2.5963,0,0,0,0,0,0,2.5706,2.5713,2.578,2.5782,2.5734,2.5763,2.5768,2.5785,2.5807,2.5809,2.5788,2.5786,2.5825,2.583,2.5834,2.5884,2.5845,2.5848,2.5849,2.596,2.5962,2.5964,0,0,0,0,0,0,2.5704,2.5712,2.5778,2.5747,2.5755,2.5766,2.5786,2.5787,2.5798,2.5811,2.5812,2.5798,2.5824,2.583,2.5866,2.5885,2.5849,2.5852,2.5959,2.5961,2.5963,2.5985,0,0,0,0,0,0,2.5701,2.5711,2.5729,2.5748,2.5757,2.581,2.5787,2.5788,2.5803,2.5801,2.582,2.5822,2.5824,2.5862,2.5869,2.5888,2.5854,2.5957,2.596,2.5962,2.5983,2.5988,2.5992,0,0,0,0,0,2.5698,2.5734,2.573,2.5738,2.578,2.5812,2.5817,2.5819,2.5805,2.5821,2.5829,2.5821,2.5882,2.5865,2.5873,2.5894,2.5956,2.5959,2.5962,2.5981,2.5987,2.5992,0,0,0,0,0,0,2.5717,2.5737,2.5732,2.5776,2.5792,2.5809,2.5831,2.5826,2.5846,2.5843,2.5844,2.5848,2.5884,2.5893,2.5874,2.5935,2.5917,2.5921,2.5928,2.5934,2.5939,2.5935,2.5856,0,0,0,0,0,2.5727,2.5752,2.5767,2.5804,2.5812,2.582,2.5834,2.5834,2.5851,2.5858,2.5868,2.5884,2.5906,2.5921,2.5943,2.5984,2.5987,2.6002,2.6007,2.6011,2.6014,2.6034,2.604,2.5974,2.5974,2.5974,0,0,2.5746,2.576,2.5776,2.5808,2.5821,2.5845,2.5826,2.5854,2.5871,2.5862,2.5895,2.5903,2.5921,2.5959,2.5976,2.5967,2.6033,2.6015,2.6018,2.6019,2.6038,2.6044,2.6049,2.5976,2.5975,2.5975,0,0,2.5794,2.5808,2.5839,2.5851,2.5871,2.5875,2.5882,2.59,2.5905,2.5939,2.5931,2.5951,2.5991,2.6003,2.6014,2.6063,2.6055,2.607,2.6094,2.6113,2.6118,2.6123,2.6138,2.6144,2.6074,2.6074,2.6074,0,2.5816,2.5853,2.5855,2.5882,2.5896,2.5888,2.5917,2.593,2.5955,2.5963,2.5953,2.6,2.6012,2.6051,2.6062,2.6073,2.6079,2.6067,2.6118,2.6122,2.6126,2.6141,2.6147,2.6075,2.6075,2.6075,2.6075,0,2.5877,2.5903,2.5926,2.5949,2.5965,2.5994,2.5998,2.6014,2.6012,2.6017,2.605,2.6063,2.6086,2.6095,2.6094,2.6133,2.6127,2.6117,2.6098,2.6134,2.6147,2.6153,2.6078,2.6077,2.6077,2.6076,0,0,2.5939,2.5962,2.597,2.5979,2.5999,2.6018,2.6045,2.6067,2.6079,2.6096,2.6117,2.615,2.614,2.6153,2.6152,2.617,2.6204,2.6157,2.6158,2.6163,2.6245,2.6251,2.6258,2.62,2.6201,2.6202,2.6243,0,2.5987,2.6034,2.6036,2.6079,2.6101,2.6093,2.6116,2.6129,2.6134,2.6153,2.6158,2.618,2.6167,2.6174,2.6191,2.6197,2.622,2.6194,2.6217,2.6218,2.6212,2.6265,2.6272,2.631,2.6248,2.6249,2.625,0,2.6049,2.6066,2.6112,2.6125,2.6134,2.6155,2.6174,2.6193,2.6207,2.6209,2.6222,2.6219,2.6244,2.6225,2.6259,2.6241,2.625,2.6254,2.6256,2.6257,2.6235,2.6265,2.6323,2.6328,2.6259,2.6258,2.6258,0,2.6086,2.6121,2.6152,2.6161,2.6178,2.6192,2.62,2.6213,2.6225,2.6241,2.6249,2.6268,2.6278,2.6292,2.6293,2.628,2.6326,2.6308,2.6327,2.6327,2.6336,2.6335,2.6394,2.6346,2.6346,2.6346,2.6345,0,2.6137,2.6165,2.6168,2.6187,2.6217,2.6217,2.6246,2.6252,2.6263,2.6282,2.6277,2.6294,2.6295,2.6312,2.6313,2.634,2.6345,2.6346,2.6345,2.6345,2.6345,2.6351,2.6347,2.6347,2.6347,2.6346,2.6346,0,2.6183,2.6188,2.622,2.6233,2.6237,2.6258,2.6268,2.6285,2.6289,2.6312,2.6318,2.6324,2.6343,2.6346,2.637,2.637,2.6401,2.6399,2.6396,2.6395,2.6413,2.641,2.6476,2.6483,2.6432,2.6433,2.6433,0,2.6215,2.6236,2.625,2.6262,2.627,2.629,2.6302,2.6303,2.6315,2.6331,2.6346,2.6365,2.638,2.6412,2.6418,2.6435,2.6432,2.6454,2.6435,2.6433,2.6429,2.6427,2.6428,2.6457,2.6457,2.6458,2.6458,0,2.627,2.627,2.6288,2.6306,2.632,2.6334,2.6348,2.6357,2.6359,2.6373,2.6393,2.6405,2.6428,2.6447,2.6463,2.647,2.6464,2.6464,2.6469,2.6468,2.6465,2.6465,2.6404,2.6463,2.6462,2.6462,2.6462,2.6461,2.6308,2.6325,2.6337,2.6356,2.6366,2.6378,2.6393,2.6399,2.6415,2.6434,2.6433,2.6455,2.6466,2.6487,2.6495,2.6511,2.6504,2.6511,2.6513,2.6514,2.6515,2.6464,2.6514,2.6514,2.6514,2.6514,2.6514,0,2.6361,2.6368,2.6385,2.6403,2.6417,2.6411,2.6424,2.6436,2.6455,2.6467,2.6481,2.6503,2.652,2.6527,2.6543,2.6554,2.6552,2.6558,2.6557,2.6558,2.6522,2.6515,2.656,2.656,2.656,2.656,2.656,2.656,2.639,2.6417,2.6418,2.6449,2.6455,2.6476,2.6484,2.6494,2.6502,2.6527,2.6541,2.6545,2.6554,2.657,2.6585,2.6586,2.6592,2.6599,2.6599,2.6565,2.6561,2.6556,2.6549,2.6601,2.6601,2.6633,2.6634,2.6634]},{"header":{"parameterUnit":"m.s-1","parameterCategory":1,"la1":30.2991,"la2":30.254,"lo1":-89.0895,"lo2":-89.0444,"dy":0.0017,"dx":0.0017,"nx":28,"ny":28,"refTime":"2025-05-28T09:00:00:Z","depth":0,"parameterNumber":3,"parameterNumberName":"V-component_of_WINDS"},"data":[0,0,0,0,0,0,0,0,0,0,0,0,0,0,0,0,0,0,0,0,0,0,0,0,0,0,0,0,0,0,0,0,0,0,0,0,0,0,0,0,0,0,0,0,0,0,0,0,0,0,0,0,0,0,0,0,0,0,5.0422,5.0425,0,5.0745,5.0749,5.0752,5.079,5.0787,5.0784,5.0781,5.1111,5.1123,5.1135,0,0,0,0,0,0,0,0,0,0,0,0,0,4.9833,4.9844,5.0421,5.0425,5.043,5.0744,5.0749,5.0753,5.0791,5.0787,5.0783,5.0779,5.1108,5.1121,5.1136,0,0,0,0,0,0,0,0,0,0,0,0,0,5.0116,4.9848,5.0421,5.0486,5.0495,5.0743,5.0749,5.0754,5.0791,5.0787,5.0782,5.0777,5.1103,5.112,5.1138,5.1343,0,0,5.1192,5.1199,0,0,0,0,0,0,0,0,5.01,5.0137,5.0473,5.0482,5.0493,5.0722,5.0663,5.0952,5.0793,5.0679,5.0781,5.0775,5.0986,5.1013,5.1084,5.1358,5.1372,5.1193,5.1204,5.1212,5.1216,0,0,0,0,0,0,0,5.008,5.0124,5.0549,5.0477,5.049,5.0498,5.0533,5.0718,5.0855,5.0689,5.0692,5.073,5.099,5.1067,5.1092,5.1377,5.1193,5.1208,5.1219,5.1226,5.1832,5.1837,0,0,0,0,0,0,5.0049,5.0107,5.0539,5.0559,5.028,5.0513,5.0552,5.0653,5.0853,5.0879,5.0734,5.073,5.1039,5.1071,5.1104,5.1355,5.1211,5.1228,5.1238,5.1826,5.1833,5.1839,0,0,0,0,0,0,5.0036,5.0087,5.0526,5.0334,5.0391,5.0528,5.0642,5.0662,5.0739,5.0888,5.0912,5.0787,5.1036,5.1079,5.1282,5.1367,5.1236,5.1252,5.182,5.1828,5.1836,5.186,0,0,0,0,0,0,5.0019,5.0082,5.0163,5.0336,5.0401,5.07,5.0647,5.0672,5.0769,5.0768,5.0944,5.0968,5.1036,5.1256,5.13,5.1389,5.1266,5.1813,5.1824,5.1833,5.1853,5.1868,5.1882,0,0,0,0,0,4.9998,5.0157,5.0167,5.0219,5.0504,5.0705,5.0742,5.0817,5.0776,5.0857,5.0952,5.0963,5.135,5.1276,5.1326,5.1422,5.1808,5.1821,5.1833,5.1846,5.1865,5.1882,0,0,0,0,0,0,4.9992,5.0181,5.0194,5.0414,5.0543,5.0711,5.0816,5.0836,5.0979,5.0972,5.1058,5.1098,5.1297,5.138,5.1294,5.1629,5.1575,5.1598,5.1568,5.1588,5.1602,5.1578,5.128,0,0,0,0,0,5.0016,5.0164,5.0321,5.05,5.0564,5.0679,5.0769,5.0815,5.0952,5.1007,5.1117,5.1249,5.14,5.1498,5.1646,5.1864,5.1902,5.1954,5.1969,5.198,5.1999,5.2118,5.2142,5.188,5.1879,5.1879,0,0,5.0068,5.0189,5.0278,5.0502,5.0608,5.0757,5.0725,5.0886,5.0997,5.1032,5.123,5.1314,5.1467,5.1678,5.1776,5.1753,5.2079,5.1996,5.2004,5.2017,5.2133,5.2157,5.2179,5.1888,5.1886,5.1885,0,0,5.0239,5.0346,5.0506,5.0612,5.0771,5.0845,5.0883,5.1048,5.1105,5.1305,5.1333,5.1466,5.1726,5.1833,5.1921,5.2127,5.2142,5.2173,5.225,5.2364,5.2385,5.2403,5.2475,5.25,5.2191,5.2191,5.2191,0,5.0283,5.0511,5.0586,5.0745,5.0842,5.0878,5.1039,5.1138,5.1337,5.1402,5.1373,5.1697,5.1803,5.2038,5.2087,5.2158,5.2203,5.2154,5.2376,5.2395,5.2414,5.2483,5.251,5.2194,5.2193,5.2193,5.2193,0,5.0556,5.0713,5.0823,5.1013,5.1122,5.1282,5.1379,5.148,5.1515,5.1592,5.1793,5.192,5.2093,5.2152,5.2189,5.2391,5.2371,5.2358,5.2306,5.244,5.2507,5.2534,5.2197,5.2196,5.2196,5.2195,0,0,5.0736,5.0963,5.1002,5.1087,5.1263,5.1386,5.1545,5.1713,5.1797,5.1932,5.2066,5.2283,5.227,5.237,5.2419,5.2519,5.2671,5.2493,5.2498,5.2521,5.29,5.2909,5.2938,5.2681,5.2687,5.2691,5.2886,0,5.0926,5.1212,5.1282,5.1526,5.1671,5.1705,5.1843,5.1965,5.204,5.2173,5.2255,5.2406,5.2379,5.2439,5.254,5.2631,5.2748,5.2618,5.2806,5.2812,5.2767,5.2974,5.2985,5.3164,5.2913,5.2918,5.2921,0,5.1188,5.1327,5.1585,5.1739,5.1802,5.1926,5.2083,5.221,5.2348,5.2395,5.2504,5.2541,5.2706,5.2644,5.2871,5.2781,5.2861,5.2917,5.2926,5.2947,5.2875,5.3,5.3223,5.3249,5.2963,5.296,5.2957,0,5.1291,5.1543,5.1729,5.1801,5.1986,5.2071,5.2152,5.2285,5.238,5.2518,5.258,5.2735,5.2819,5.2937,5.3014,5.2962,5.3235,5.3179,5.3277,5.3275,5.3335,5.333,5.3573,5.3386,5.3385,5.3385,5.3384,0,5.1497,5.1653,5.1778,5.1892,5.2067,5.2144,5.2315,5.2396,5.2513,5.2643,5.2682,5.2802,5.2897,5.3029,5.3091,5.3268,5.3306,5.3348,5.3362,5.3345,5.334,5.34,5.3389,5.3392,5.3391,5.3389,5.3388,0,5.1643,5.1733,5.1938,5.2095,5.2137,5.2259,5.2393,5.2504,5.2578,5.2741,5.2784,5.29,5.3058,5.3146,5.3345,5.3386,5.3584,5.3592,5.3537,5.3544,5.3637,5.3626,5.3927,5.397,5.3754,5.3756,5.3757,0,5.1769,5.1889,5.2058,5.2147,5.2229,5.2373,5.247,5.2549,5.2648,5.2812,5.2903,5.3062,5.3195,5.3445,5.3547,5.3698,5.371,5.3805,5.3733,5.371,5.371,5.3702,5.3714,5.3817,5.3819,5.3821,5.3822,0,5.1982,5.2019,5.2157,5.231,5.2424,5.2549,5.2672,5.2743,5.2842,5.2951,5.3112,5.3215,5.3416,5.3573,5.3732,5.3814,5.3835,5.3843,5.3874,5.3858,5.3821,5.3841,5.3571,5.3837,5.3835,5.3834,5.3833,5.3833,5.2122,5.2229,5.2364,5.2515,5.2616,5.2729,5.2841,5.2927,5.3064,5.3234,5.3271,5.3441,5.3572,5.3787,5.3872,5.4005,5.3987,5.4032,5.4043,5.4053,5.4056,5.3799,5.4034,5.4034,5.4033,5.4033,5.4033,0,5.2336,5.2423,5.2562,5.2732,5.285,5.2858,5.2994,5.3092,5.3241,5.3361,5.349,5.3673,5.3825,5.3937,5.4092,5.4176,5.4189,5.4214,5.4209,5.4227,5.4064,5.4021,5.42,5.42,5.42,5.42,5.42,5.42,5.2461,5.2643,5.2695,5.2926,5.3012,5.3179,5.3255,5.3359,5.3455,5.3658,5.3785,5.3856,5.3973,5.4135,5.4274,5.4303,5.4357,5.4381,5.4411,5.4257,5.4239,5.4222,5.4182,5.4392,5.4393,5.4563,5.4565,5.4566]}]]